Location: Fort Worth, Tx
(32.7431°N, 97.3695°W)
Time: 20:02:32
(UTC-04:00)

Vanguard 1 Rocket - Pass Details

Date: 16 September 2024
Orbit: 650 x 4218 km, 34.3° (Epoch: 11 October)

Event Time Altitude Azimuth Distance (km) Brightness Sun altitude
Exits shadow 02:47:24 16° 98° (E) 4,648 10.9 -54.4°
Drops below altitude 10° 02:51:45 10° 86° (E) 5,629 11.5 -54.2°
Sets 02:59:01 0° 73° (ENE) 7,344 12.3 -53.9°
